Qianfan 05-11

operational
NORAD ID: 63169 Int'l Des: 2025-046 Owner: YUANX Country: CN Constellation: qianfan
LEOCIRCULARPOLAR

About Qianfan 05-11

Description loading...

Live Position

Loading 3D Globe...

Upcoming Passes

Altitude History

Altitude vs Time

uPlot chart will show altitude changes over time

Two-Line Element Set

1 63169U 25046L 25303.79398220 .00000077 00000-0 83425-4 0 9995
2 63169 88.9769 324.2254 0012442 235.7173 124.2807 13.61966587 41750
Epoch: Oct 30, 2025 • Age: 9 hours

Current Status

Altitude 1038.8 km
Velocity 7.33 km/s
Sub-Earth Point -20.57°S, 132.47°W
Launch Date Mar 11, 2025
Age 0.6 years
Type internet

Technical Details

Classification Payload
Mass 267.00 kg
Dry Mass 267.00 kg
Total Mass 267.00 kg
Length 0.30 m
Diameter 3.00 m
Span 10.00 m
Shape Box+pan
Manufacturer GESIH
Bus Type Qianfan
Phase Status In Orbit
Owner/State YUANX/CN

Large Constellations

Loading constellations...